Time,TemperatureF,DewpointF,PressureIn,WindDirection,WindDirectionDegrees,WindSpeedMPH,WindSpeedGustMPH,Humidity,HourlyPrecipIn,Conditions,Clouds,dailyrainin,SolarRadiationWatts/m^2,SoftwareType,DateUTC
2013-01-27 00:00:00,15.2,12.6,30.42,NW,306,0.0,0.0,89,0.00,CLR,,0.00,0.0,WeatherDisplay:10.37,2013-01-27 05:00:00,
2013-01-27 00:03:00,15.1,12.4,30.42,NW,306,0.0,0.0,89,0.00,CLR,,0.00,0.0,WeatherDisplay:10.37,2013-01-27 05:03:00,
2013-01-27 00:08:00,15.0,12.3,30.42,NW,306,0.0,0.0,89,0.00,CLR,,0.00,0.0,WeatherDisplay:10.37,2013-01-27 05:08:00,
2013-01-27 00:13:00,14.9,12.5,30.42,NW,306,0.0,0.0,90,0.00,CLR,,0.00,0.0,WeatherDisplay:10.37,2013-01-27 05:13:00,
2013-01-27 00:18:00,14.8,12.4,30.42,NW,306,0.0,0.0,90,0.00,CLR,,0.00,0.0,WeatherDisplay:10.37,2013-01-27 05:18:00,
2013-01-27 00:23:00,14.8,12.4,30.42,NW,306,0.0,0.0,90,0.00,CLR,,0.00,0.0,WeatherDisplay:10.37,2013-01-27 05:23:00,
2013-01-27 00:28:00,14.8,12.4,30.42,NW,306,0.2,1.1,90,0.00,CLR,,0.00,0.0,WeatherDisplay:10.37,2013-01-27 05:28:00,
2013-01-27 00:33:00,14.7,12.3,30.42,NW,306,0.0,0.0,90,0.00,CLR,,0.00,0.0,WeatherDisplay:10.37,2013-01-27 05:33:00,
2013-01-27 00:38:00,14.5,11.9,30.42,NW,306,0.0,0.0,89,0.00,CLR,,0.00,0.0,WeatherDisplay:10.37,2013-01-27 05:38:00,
2013-01-27 00:43:00,14.4,12.0,30.42,NW,306,0.1,1.1,90,0.00,CLR,,0.00,0.0,WeatherDisplay:10.37,2013-01-27 05:43:00,
2013-01-27 00:48:00,14.2,11.6,30.41,NW,306,0.7,2.3,89,0.00,CLR,,0.00,0.0,WeatherDisplay:10.37,2013-01-27 05:48:00,
2013-01-27 00:53:00,14.0,11.4,30.42,NW,306,0.1,1.1,89,0.00,CLR,,0.00,0.0,WeatherDisplay:10.37,2013-01-27 05:53:00,
2013-01-27 00:58:00,13.9,11.5,30.42,NW,306,0.0,0.0,90,0.00,CLR,,0.00,0.0,WeatherDisplay:10.37,2013-01-27 05:58:00,
2013-01-27 01:03:00,13.7,11.1,30.42,NW,306,0.0,0.0,89,0.00,CLR,,0.00,0.0,WeatherDisplay:10.37,2013-01-27 06:03:00,
2013-01-27 01:08:00,13.6,11.2,30.42,NW,306,0.0,0.0,90,0.00,CLR,,0.00,0.0,WeatherDisplay:10.37,2013-01-27 06:08:00,
2013-01-27 01:13:00,13.5,11.1,30.42,NW,306,0.0,0.0,90,0.00,CLR,,0.00,0.0,WeatherDisplay:10.37,2013-01-27 06:13:00,
2013-01-27 01:18:00,13.4,11.0,30.42,NW,306,0.0,0.0,90,0.00,CLR,,0.00,0.0,WeatherDisplay:10.37,2013-01-27 06:18:00,
2013-01-27 01:23:00,13.3,10.9,30.42,NW,306,0.1,1.1,90,0.00,CLR,,0.00,0.0,WeatherDisplay:10.37,2013-01-27 06:23:00,
2013-01-27 01:28:00,13.1,11.0,30.42,NW,306,0.1,1.1,91,0.00,CLR,,0.00,0.0,WeatherDisplay:10.37,2013-01-27 06:28:00,
2013-01-27 01:33:00,13.0,10.6,30.42,NW,306,0.1,1.1,90,0.00,CLR,,0.00,0.0,WeatherDisplay:10.37,2013-01-27 06:33:00,
2013-01-27 01:38:00,12.7,10.3,30.41,NW,306,0.1,1.1,90,0.00,CLR,,0.00,0.0,WeatherDisplay:10.37,2013-01-27 06:38:00,
2013-01-27 01:43:00,12.5,10.1,30.42,NW,306,0.0,0.0,90,0.00,CLR,,0.00,0.0,WeatherDisplay:10.37,2013-01-27 06:43:00,
2013-01-27 01:48:00,12.2,9.8,30.42,NW,306,0.0,0.0,90,0.00,CLR,,0.00,0.0,WeatherDisplay:10.37,2013-01-27 06:48:00,
2013-01-27 01:53:00,11.9,9.8,30.42,NW,306,0.0,0.0,91,0.00,CLR,,0.00,0.0,WeatherDisplay:10.37,2013-01-27 06:53:00,
2013-01-27 01:58:00,11.8,9.7,30.42,NW,306,0.0,0.0,91,0.00,CLR,,0.00,0.0,WeatherDisplay:10.37,2013-01-27 06:58:00,
2013-01-27 02:03:00,11.7,9.6,30.41,NW,306,0.0,0.0,91,0.00,CLR,,0.00,0.0,WeatherDisplay:10.37,2013-01-27 07:03:00,
2013-01-27 02:08:00,11.4,9.3,30.42,NW,306,0.2,1.1,91,0.00,CLR,,0.00,0.0,WeatherDisplay:10.37,2013-01-27 07:08:00,
2013-01-27 02:13:00,11.2,9.1,30.42,NW,306,0.0,1.1,91,0.00,CLR,,0.00,0.0,WeatherDisplay:10.37,2013-01-27 07:13:00,
2013-01-27 02:18:00,11.1,9.0,30.42,NW,306,0.0,0.0,91,0.00,CLR,,0.00,0.0,WeatherDisplay:10.37,2013-01-27 07:18:00,
2013-01-27 02:23:00,10.9,8.8,30.42,NW,306,0.0,0.0,91,0.00,CLR,,0.00,0.0,WeatherDisplay:10.37,2013-01-27 07:23:00,
2013-01-27 02:28:00,10.7,8.6,30.42,NW,306,0.1,1.1,91,0.00,CLR,,0.00,0.0,WeatherDisplay:10.37,2013-01-27 07:28:00,
2013-01-27 02:33:00,10.6,8.5,30.43,NW,306,0.0,1.1,91,0.00,CLR,,0.00,0.0,WeatherDisplay:10.37,2013-01-27 07:33:00,
2013-01-27 02:38:00,10.5,8.4,30.42,NW,306,0.3,1.1,91,0.00,CLR,,0.00,0.0,WeatherDisplay:10.37,2013-01-27 07:38:00,
2013-01-27 02:43:00,10.3,8.0,30.42,NW,306,0.1,1.1,90,0.00,CLR,,0.00,0.0,WeatherDisplay:10.37,2013-01-27 07:43:00,
2013-01-27 02:48:00,10.3,8.2,30.42,NW,306,0.0,0.0,91,0.00,CLR,,0.00,0.0,WeatherDisplay:10.37,2013-01-27 07:48:00,
2013-01-27 02:53:00,10.2,8.1,30.42,NW,306,0.0,0.0,91,0.00,CLR,,0.00,0.0,WeatherDisplay:10.37,2013-01-27 07:53:00,
2013-01-27 02:58:00,10.1,8.0,30.42,NW,306,0.0,0.0,91,0.00,CLR,,0.00,0.0,WeatherDisplay:10.37,2013-01-27 07:58:00,
2013-01-27 03:03:00,10.0,7.9,30.43,NW,306,0.0,1.1,91,0.00,CLR,,0.00,0.0,WeatherDisplay:10.37,2013-01-27 08:03:00,
2013-01-27 03:08:00,10.2,8.3,30.43,NW,306,0.2,1.1,92,0.00,CLR,,0.00,0.0,WeatherDisplay:10.37,2013-01-27 08:08:00,
2013-01-27 03:13:00,10.4,8.5,30.42,NW,306,0.0,0.0,92,0.00,CLR,,0.00,0.0,WeatherDisplay:10.37,2013-01-27 08:13:00,
2013-01-27 03:18:00,10.5,8.4,30.43,NW,306,0.0,0.0,91,0.00,CLR,,0.00,0.0,WeatherDisplay:10.37,2013-01-27 08:18:00,
2013-01-27 03:23:00,10.4,8.3,30.42,NW,306,0.0,0.0,91,0.00,CLR,,0.00,0.0,WeatherDisplay:10.37,2013-01-27 08:23:00,
2013-01-27 03:28:00,10.3,8.0,30.42,NW,306,0.0,0.0,90,0.00,CLR,,0.00,0.0,WeatherDisplay:10.37,2013-01-27 08:28:00,
2013-01-27 03:33:00,10.1,7.8,30.42,NW,306,0.0,1.1,90,0.00,CLR,,0.00,0.0,WeatherDisplay:10.37,2013-01-27 08:33:00,
2013-01-27 03:38:00,9.9,7.6,30.41,NW,306,0.3,1.1,90,0.00,CLR,,0.00,0.0,WeatherDisplay:10.37,2013-01-27 08:38:00,
2013-01-27 03:43:00,9.8,7.5,30.41,NW,306,0.0,0.0,90,0.00,CLR,,0.00,0.0,WeatherDisplay:10.37,2013-01-27 08:43:00,
2013-01-27 03:48:00,9.6,7.0,30.41,NW,306,0.0,0.0,89,0.00,CLR,,0.00,0.0,WeatherDisplay:10.37,2013-01-27 08:48:00,
2013-01-27 03:53:00,9.4,7.1,30.42,NW,306,0.0,1.1,90,0.00,CLR,,0.00,0.0,WeatherDisplay:10.37,2013-01-27 08:53:00,
2013-01-27 03:58:00,9.2,6.9,30.42,NW,306,0.0,1.1,90,0.00,CLR,,0.00,0.0,WeatherDisplay:10.37,2013-01-27 08:58:00,
2013-01-27 04:03:00,9.0,6.4,30.41,NW,306,0.0,0.0,89,0.00,CLR,,0.00,0.0,WeatherDisplay:10.37,2013-01-27 09:03:00,
2013-01-27 04:08:00,8.8,6.5,30.41,NW,306,0.7,1.1,90,0.00,CLR,,0.00,0.0,WeatherDisplay:10.37,2013-01-27 09:08:00,
2013-01-27 04:13:00,8.7,6.4,30.41,NW,306,0.0,1.1,90,0.00,CLR,,0.00,0.0,WeatherDisplay:10.37,2013-01-27 09:13:00,
2013-01-27 04:18:00,8.6,6.3,30.41,NW,306,0.0,1.1,90,0.00,CLR,,0.00,0.0,WeatherDisplay:10.37,2013-01-27 09:18:00,
2013-01-27 04:23:00,8.4,5.8,30.41,NW,306,0.0,0.0,89,0.00,CLR,,0.00,0.0,WeatherDisplay:10.37,2013-01-27 09:23:00,
2013-01-27 04:28:00,8.2,5.6,30.41,NW,306,0.0,0.0,89,0.00,CLR,,0.00,0.0,WeatherDisplay:10.37,2013-01-27 09:28:00,
2013-01-27 04:33:00,8.2,5.9,30.42,NW,306,0.0,1.1,90,0.00,CLR,,0.00,0.0,WeatherDisplay:10.37,2013-01-27 09:33:00,
2013-01-27 04:38:00,8.2,5.9,30.42,NW,306,0.0,0.0,90,0.00,CLR,,0.00,0.0,WeatherDisplay:10.37,2013-01-27 09:38:00,
2013-01-27 04:43:00,8.2,5.9,30.42,NW,306,0.2,1.1,90,0.00,CLR,,0.00,0.0,WeatherDisplay:10.37,2013-01-27 09:43:00,
2013-01-27 04:48:00,8.1,5.5,30.42,NW,306,0.0,0.0,89,0.00,CLR,,0.00,0.0,WeatherDisplay:10.37,2013-01-27 09:48:00,
2013-01-27 04:53:00,8.0,5.4,30.42,NW,306,0.0,0.0,89,0.00,CLR,,0.00,0.0,WeatherDisplay:10.37,2013-01-27 09:53:00,
2013-01-27 04:58:00,7.9,5.6,30.42,NW,306,0.0,0.0,90,0.00,CLR,,0.00,0.0,WeatherDisplay:10.37,2013-01-27 09:58:00,
2013-01-27 05:04:00,7.8,5.2,30.42,NW,306,0.4,1.1,89,0.00,CLR,,0.00,0.0,WeatherDisplay:10.37,2013-01-27 10:04:00,
2013-01-27 05:09:00,7.7,5.1,30.42,NW,306,0.0,0.0,89,0.00,CLR,,0.00,0.0,WeatherDisplay:10.37,2013-01-27 10:09:00,
2013-01-27 05:14:00,7.6,5.3,30.43,NW,306,0.0,0.0,90,0.00,CLR,,0.00,0.0,WeatherDisplay:10.37,2013-01-27 10:14:00,
2013-01-27 05:19:00,7.9,5.8,30.43,NW,306,0.6,1.1,91,0.00,CLR,,0.00,0.0,WeatherDisplay:10.37,2013-01-27 10:19:00,
2013-01-27 05:24:00,8.1,6.0,30.43,NW,306,0.0,1.1,91,0.00,CLR,,0.00,0.0,WeatherDisplay:10.37,2013-01-27 10:24:00,
2013-01-27 05:29:00,8.1,5.8,30.43,NW,306,0.0,0.0,90,0.00,CLR,,0.00,0.0,WeatherDisplay:10.37,2013-01-27 10:29:00,
2013-01-27 05:34:00,7.9,5.3,30.43,NW,306,0.1,1.1,89,0.00,CLR,,0.00,0.0,WeatherDisplay:10.37,2013-01-27 10:34:00,
2013-01-27 05:39:00,7.8,5.2,30.42,NW,306,0.2,1.1,89,0.00,CLR,,0.00,0.0,WeatherDisplay:10.37,2013-01-27 10:39:00,
2013-01-27 05:44:00,7.5,4.4,30.42,NW,306,0.2,1.1,87,0.00,CLR,,0.00,0.0,WeatherDisplay:10.37,2013-01-27 10:44:00,
2013-01-27 05:49:00,7.5,5.2,30.43,NW,306,0.4,1.1,90,0.00,CLR,,0.00,0.0,WeatherDisplay:10.37,2013-01-27 10:49:00,
2013-01-27 05:54:00,7.8,5.7,30.43,NW,306,0.2,1.0,91,0.00,CLR,,0.00,0.0,WeatherDisplay:10.37,2013-01-27 10:54:00,
2013-01-27 05:59:00,7.7,5.1,30.43,NW,306,0.1,1.1,89,0.00,CLR,,0.00,0.0,WeatherDisplay:10.37,2013-01-27 10:59:00,
2013-01-27 06:04:00,7.5,4.7,30.43,NW,306,0.0,0.0,88,0.00,CLR,,0.00,0.0,WeatherDisplay:10.37,2013-01-27 11:04:00,
2013-01-27 06:09:00,7.4,4.8,30.43,NW,306,0.0,0.0,89,0.00,CLR,,0.00,0.0,WeatherDisplay:10.37,2013-01-27 11:09:00,
2013-01-27 06:14:00,7.4,4.8,30.42,NW,306,0.1,0.0,89,0.00,CLR,,0.00,0.0,WeatherDisplay:10.37,2013-01-27 11:14:00,
2013-01-27 06:19:00,7.5,4.9,30.43,NW,306,1.0,1.1,89,0.00,CLR,,0.00,0.0,WeatherDisplay:10.37,2013-01-27 11:19:00,
2013-01-27 06:24:00,7.7,5.4,30.42,NW,306,1.1,2.3,90,0.00,CLR,,0.00,0.0,WeatherDisplay:10.37,2013-01-27 11:24:00,
2013-01-27 06:29:00,8.2,6.1,30.42,NW,306,0.6,1.1,91,0.00,CLR,,0.00,0.0,WeatherDisplay:10.37,2013-01-27 11:29:00,
2013-01-27 06:34:00,8.6,6.5,30.42,NW,306,0.0,0.0,91,0.00,CLR,,0.00,0.0,WeatherDisplay:10.37,2013-01-27 11:34:00,
2013-01-27 06:39:00,9.1,7.2,30.43,NW,306,0.4,1.1,92,0.00,CLR,,0.00,0.0,WeatherDisplay:10.37,2013-01-27 11:39:00,
2013-01-27 06:44:00,9.4,7.3,30.43,NW,306,0.0,0.0,91,0.00,CLR,,0.00,0.0,WeatherDisplay:10.37,2013-01-27 11:44:00,
2013-01-27 06:49:00,9.5,7.4,30.43,NW,306,0.0,0.0,91,0.00,CLR,,0.00,0.0,WeatherDisplay:10.37,2013-01-27 11:49:00,
2013-01-27 06:54:00,9.6,7.3,30.43,NW,306,0.1,1.1,90,0.00,CLR,,0.00,0.0,WeatherDisplay:10.37,2013-01-27 11:54:00,
2013-01-27 06:59:00,9.8,7.7,30.44,NW,306,0.1,1.1,91,0.00,CLR,,0.00,0.0,WeatherDisplay:10.37,2013-01-27 11:59:00,
2013-01-27 07:04:00,10.0,7.9,30.43,NW,306,0.1,1.1,91,0.00,BKN,,0.00,0.0,WeatherDisplay:10.37,2013-01-27 12:04:00,
2013-01-27 07:09:00,10.1,7.8,30.42,NW,306,0.6,1.1,90,0.00,BKN,,0.00,0.0,WeatherDisplay:10.37,2013-01-27 12:09:00,
2013-01-27 07:14:00,10.1,7.8,30.42,NW,306,0.7,1.1,90,0.00,BKN,,0.00,0.0,WeatherDisplay:10.37,2013-01-27 12:14:00,
2013-01-27 07:19:00,10.3,8.2,30.42,NW,306,0.2,1.1,91,0.00,BKN,,0.00,0.0,WeatherDisplay:10.37,2013-01-27 12:19:00,
2013-01-27 07:24:00,10.5,8.4,30.42,NW,306,0.0,0.0,91,0.00,BKN,,0.00,0.0,WeatherDisplay:10.37,2013-01-27 12:24:00,
2013-01-27 07:29:00,10.5,8.1,30.42,NW,306,0.0,0.0,90,0.00,BKN,,0.00,0.0,WeatherDisplay:10.37,2013-01-27 12:29:00,
2013-01-27 07:34:00,10.4,7.8,30.42,NW,306,0.5,1.1,89,0.00,BKN,,0.00,0.0,WeatherDisplay:10.37,2013-01-27 12:34:00,
2013-01-27 07:39:00,10.2,7.6,30.42,NW,306,0.0,0.0,89,0.00,BKN,,0.00,0.0,WeatherDisplay:10.37,2013-01-27 12:39:00,
2013-01-27 07:44:00,10.0,7.2,30.43,NW,306,0.1,1.1,88,0.00,BKN,,0.00,0.0,WeatherDisplay:10.37,2013-01-27 12:44:00,
2013-01-27 07:49:00,9.7,6.9,30.43,NW,306,0.1,1.1,88,0.00,BKN,,0.00,0.0,WeatherDisplay:10.37,2013-01-27 12:49:00,
2013-01-27 07:54:00,9.5,6.4,30.43,NW,306,0.0,0.0,87,0.00,BKN,,0.00,5.0,WeatherDisplay:10.37,2013-01-27 12:54:00,
2013-01-27 07:59:00,9.2,6.4,30.43,NW,306,0.3,1.1,88,0.00,BKN,,0.00,9.0,WeatherDisplay:10.37,2013-01-27 12:59:00,
2013-01-27 08:04:00,9.0,6.2,30.43,NW,306,0.0,0.0,88,0.00,FEW,,0.00,12.0,WeatherDisplay:10.37,2013-01-27 13:04:00,
2013-01-27 08:09:00,8.8,6.0,30.43,NW,306,0.0,1.1,88,0.00,FEW,,0.00,12.0,WeatherDisplay:10.37,2013-01-27 13:09:00,
2013-01-27 08:14:00,8.6,5.8,30.43,NW,306,0.0,0.0,88,0.00,FEW,,0.00,18.0,WeatherDisplay:10.37,2013-01-27 13:14:00,
2013-01-27 08:19:00,8.6,6.0,30.43,NW,306,0.0,0.0,89,0.00,FEW,,0.00,19.0,WeatherDisplay:10.37,2013-01-27 13:19:00,
2013-01-27 08:24:00,8.6,6.0,30.43,NW,306,1.4,2.3,89,0.00,FEW,,0.00,23.0,WeatherDisplay:10.37,2013-01-27 13:24:00,
2013-01-27 08:29:00,8.6,6.0,30.43,NW,306,0.1,1.1,89,0.00,FEW,,0.00,26.0,WeatherDisplay:10.37,2013-01-27 13:29:00,
2013-01-27 08:34:00,8.7,5.9,30.42,NW,306,0.2,1.1,88,0.00,FEW,,0.00,32.0,WeatherDisplay:10.37,2013-01-27 13:34:00,
2013-01-27 08:39:00,8.8,6.2,30.43,NW,306,0.0,1.1,89,0.00,FEW,,0.00,44.0,WeatherDisplay:10.37,2013-01-27 13:39:00,
2013-01-27 08:44:00,9.1,6.8,30.42,NW,306,0.0,0.0,90,0.00,FEW,,0.00,58.0,WeatherDisplay:10.37,2013-01-27 13:44:00,
2013-01-27 08:49:00,9.8,7.9,30.43,NW,306,0.0,0.0,92,0.00,FEW,,0.00,70.0,WeatherDisplay:10.37,2013-01-27 13:49:00,
2013-01-27 08:54:00,10.4,8.8,30.43,NW,306,0.0,0.0,93,0.00,FEW,,0.00,97.0,WeatherDisplay:10.37,2013-01-27 13:54:00,
2013-01-27 08:59:00,11.6,10.2,30.44,NW,306,0.4,1.1,94,0.00,FEW,,0.00,84.0,WeatherDisplay:10.37,2013-01-27 13:59:00,
2013-01-27 09:04:00,12.5,11.1,30.44,NW,306,0.1,1.1,94,0.00,CLR,,0.00,84.0,WeatherDisplay:10.37,2013-01-27 14:04:00,
2013-01-27 09:09:00,13.6,12.2,30.44,NW,306,0.6,1.1,94,0.00,CLR,,0.00,100.0,WeatherDisplay:10.37,2013-01-27 14:09:00,
2013-01-27 09:14:00,15.0,13.8,30.43,WNW,282,1.1,2.3,95,0.00,CLR,,0.00,90.0,WeatherDisplay:10.37,2013-01-27 14:14:00,
2013-01-27 09:19:00,16.4,15.0,30.43,SSE,148,1.3,2.3,94,0.00,CLR,,0.00,97.0,WeatherDisplay:10.37,2013-01-27 14:19:00,
2013-01-27 09:24:00,17.5,15.3,30.43,SE,146,1.4,2.3,91,0.00,CLR,,0.00,98.0,WeatherDisplay:10.37,2013-01-27 14:24:00,
2013-01-27 09:29:00,18.4,15.7,30.43,SE,146,1.3,2.3,89,0.00,CLR,,0.00,132.0,WeatherDisplay:10.37,2013-01-27 14:29:00,
2013-01-27 09:34:00,19.2,16.0,30.43,SSE,154,1.7,3.5,87,0.00,CLR,,0.00,148.0,WeatherDisplay:10.37,2013-01-27 14:34:00,
2013-01-27 09:39:00,19.9,16.1,30.43,SE,136,0.8,1.1,85,0.00,CLR,,0.00,162.0,WeatherDisplay:10.37,2013-01-27 14:39:00,
2013-01-27 09:44:00,20.6,16.3,30.42,SSE,166,2.1,3.5,83,0.00,CLR,,0.00,190.0,WeatherDisplay:10.37,2013-01-27 14:44:00,
2013-01-27 09:49:00,21.3,16.4,30.43,South,180,2.0,4.0,81,0.00,CLR,,0.00,221.0,WeatherDisplay:10.37,2013-01-27 14:49:00,
2013-01-27 09:54:00,21.9,16.4,30.43,SE,140,1.8,3.5,79,0.00,CLR,,0.00,202.0,WeatherDisplay:10.37,2013-01-27 14:54:00,
2013-01-27 09:59:00,22.3,16.5,30.42,South,189,2.6,4.6,78,0.00,CLR,,0.00,207.0,WeatherDisplay:10.37,2013-01-27 14:59:00,
2013-01-27 10:04:00,22.7,16.3,30.42,SE,143,3.0,5.0,76,0.00,CLR,,0.00,155.0,WeatherDisplay:10.37,2013-01-27 15:04:00,
2013-01-27 10:09:00,22.9,16.2,30.42,SE,128,3.1,4.6,75,0.00,CLR,,0.00,158.0,WeatherDisplay:10.37,2013-01-27 15:09:00,
2013-01-27 10:14:00,23.3,16.2,30.42,SSE,166,3.1,5.8,74,0.00,CLR,,0.00,241.0,WeatherDisplay:10.37,2013-01-27 15:14:00,
2013-01-27 10:19:00,23.6,16.2,30.43,SSE,156,2.6,4.6,73,0.00,CLR,,0.00,239.0,WeatherDisplay:10.37,2013-01-27 15:19:00,
2013-01-27 10:24:00,23.9,15.9,30.42,SSW,202,3.3,4.6,71,0.00,CLR,,0.00,257.0,WeatherDisplay:10.37,2013-01-27 15:24:00,
2013-01-27 10:29:00,24.2,16.1,30.43,SSW,210,1.7,3.5,71,0.00,CLR,,0.00,221.0,WeatherDisplay:10.37,2013-01-27 15:29:00,
2013-01-27 10:34:00,24.6,15.9,30.43,South,170,2.3,6.9,69,0.00,CLR,,0.00,258.0,WeatherDisplay:10.37,2013-01-27 15:34:00,
2013-01-27 10:39:00,24.7,16.0,30.43,SSE,165,2.7,4.6,69,0.00,CLR,,0.00,135.0,WeatherDisplay:10.37,2013-01-27 15:39:00,
2013-01-27 10:44:00,25.0,15.9,30.43,SSE,156,1.7,3.5,68,0.00,CLR,,0.00,135.0,WeatherDisplay:10.37,2013-01-27 15:44:00,
2013-01-27 10:49:00,25.3,15.9,30.43,South,173,4.4,7.0,67,0.00,CLR,,0.00,225.0,WeatherDisplay:10.37,2013-01-27 15:49:00,
2013-01-27 10:54:00,25.6,15.8,30.43,South,184,4.8,8.1,66,0.00,CLR,,0.00,213.0,WeatherDisplay:10.37,2013-01-27 15:54:00,
2013-01-27 10:59:00,26.0,15.8,30.43,SE,139,3.0,4.6,65,0.00,CLR,,0.00,220.0,WeatherDisplay:10.37,2013-01-27 15:59:00,
2013-01-27 11:04:00,26.2,15.7,30.43,SSE,167,3.7,5.8,64,0.00,CLR,,0.00,229.0,WeatherDisplay:10.37,2013-01-27 16:04:00,
2013-01-27 11:09:00,26.4,15.9,30.43,SSW,192,3.0,4.6,64,0.00,CLR,,0.00,269.0,WeatherDisplay:10.37,2013-01-27 16:09:00,
2013-01-27 11:14:00,26.9,16.3,30.43,South,178,3.1,4.6,64,0.00,CLR,,0.00,330.0,WeatherDisplay:10.37,2013-01-27 16:14:00,
2013-01-27 11:19:00,27.1,15.8,30.43,South,184,4.1,8.1,62,0.00,CLR,,0.00,397.0,WeatherDisplay:10.37,2013-01-27 16:19:00,
2013-01-27 11:24:00,27.0,15.7,30.43,SSW,201,5.5,8.1,62,0.00,CLR,,0.00,302.0,WeatherDisplay:10.37,2013-01-27 16:24:00,
2013-01-27 11:29:00,26.9,16.3,30.43,South,171,3.6,6.9,64,0.00,CLR,,0.00,283.0,WeatherDisplay:10.37,2013-01-27 16:29:00,
2013-01-27 11:34:00,27.0,16.4,30.43,South,188,2.5,6.0,64,0.00,CLR,,0.00,336.0,WeatherDisplay:10.37,2013-01-27 16:34:00,
2013-01-27 11:39:00,27.1,16.9,30.43,SSE,158,2.0,3.5,65,0.00,CLR,,0.00,362.0,WeatherDisplay:10.37,2013-01-27 16:39:00,
2013-01-27 11:44:00,27.3,16.4,30.43,SSE,155,2.4,4.6,63,0.00,CLR,,0.00,236.0,WeatherDisplay:10.37,2013-01-27 16:44:00,
2013-01-27 11:49:00,27.0,15.7,30.42,SSW,201,3.8,6.9,62,0.00,CLR,,0.00,192.0,WeatherDisplay:10.37,2013-01-27 16:49:00,
2013-01-27 11:54:00,26.6,15.7,30.42,SE,142,5.6,8.1,63,0.00,CLR,,0.00,144.0,WeatherDisplay:10.37,2013-01-27 16:54:00,
2013-01-27 11:59:00,26.3,15.8,30.42,East,97,3.2,4.6,64,0.00,CLR,,0.00,137.0,WeatherDisplay:10.37,2013-01-27 16:59:00,
2013-01-27 12:04:00,26.2,16.0,30.41,SE,132,3.2,5.8,65,0.00,CLR,,0.00,151.0,WeatherDisplay:10.37,2013-01-27 17:04:00,
2013-01-27 12:09:00,26.2,16.4,30.41,SSE,151,0.9,2.3,66,0.00,CLR,,0.00,162.0,WeatherDisplay:10.37,2013-01-27 17:09:00,
2013-01-27 12:14:00,26.3,16.1,30.41,SSE,150,2.8,4.6,65,0.00,OVC,,0.00,156.0,WeatherDisplay:10.37,2013-01-27 17:14:00,
2013-01-27 12:19:00,26.3,15.8,30.41,South,169,2.7,5.8,64,0.00,OVC,,0.00,160.0,WeatherDisplay:10.37,2013-01-27 17:19:00,
2013-01-27 12:24:00,26.3,16.1,30.40,SSE,150,1.7,3.5,65,0.00,OVC,,0.00,165.0,WeatherDisplay:10.37,2013-01-27 17:24:00,
2013-01-27 12:29:00,26.3,16.1,30.40,SSE,152,2.5,4.0,65,0.00,OVC,,0.00,163.0,WeatherDisplay:10.37,2013-01-27 17:29:00,
2013-01-27 12:34:00,26.2,15.7,30.41,SSW,211,3.6,4.6,64,0.00,OVC,,0.00,160.0,WeatherDisplay:10.37,2013-01-27 17:34:00,
2013-01-27 12:39:00,26.2,16.0,30.41,SSE,167,3.6,5.8,65,0.00,OVC,,0.00,188.0,WeatherDisplay:10.37,2013-01-27 17:39:00,
2013-01-27 12:49:00,26.4,16.2,30.41,SW,229,2.1,5.0,65,0.00,OVC,,0.00,174.0,WeatherDisplay:10.37,2013-01-27 17:49:00,
2013-01-27 12:54:00,26.5,16.0,30.41,South,181,2.9,4.6,64,0.00,OVC,,0.00,206.0,WeatherDisplay:10.37,2013-01-27 17:54:00,
2013-01-27 12:59:00,26.6,16.1,30.40,SSW,209,3.2,4.0,64,0.00,OVC,,0.00,230.0,WeatherDisplay:10.37,2013-01-27 17:59:00,
2013-01-27 13:04:00,26.7,16.5,30.40,South,173,2.2,3.5,65,0.00,OVC,,0.00,214.0,WeatherDisplay:10.37,2013-01-27 18:04:00,
2013-01-27 13:09:00,26.9,16.3,30.40,South,188,2.4,6.9,64,0.00,OVC,,0.00,209.0,WeatherDisplay:10.37,2013-01-27 18:09:00,
2013-01-27 13:14:00,26.9,16.3,30.39,SE,131,3.0,6.9,64,0.00,OVC,,0.00,218.0,WeatherDisplay:10.37,2013-01-27 18:14:00,
2013-01-27 13:19:00,27.0,16.8,30.39,SSE,151,2.3,3.5,65,0.00,OVC,,0.00,206.0,WeatherDisplay:10.37,2013-01-27 18:19:00,
2013-01-27 13:24:00,27.1,16.9,30.38,South,174,1.2,3.5,65,0.00,OVC,,0.00,209.0,WeatherDisplay:10.37,2013-01-27 18:24:00,
2013-01-27 13:29:00,27.2,16.6,30.38,ESE,119,2.9,3.5,64,0.00,OVC,,0.00,213.0,WeatherDisplay:10.37,2013-01-27 18:29:00,
2013-01-27 13:34:00,27.4,16.8,30.38,SSE,151,1.8,3.5,64,0.00,OVC,,0.00,223.0,WeatherDisplay:10.37,2013-01-27 18:34:00,
2013-01-27 13:39:00,27.4,16.8,30.37,SSE,168,2.5,4.0,64,0.00,OVC,,0.00,248.0,WeatherDisplay:10.37,2013-01-27 18:39:00,
2013-01-27 13:44:00,27.7,17.5,30.37,South,180,2.3,4.6,65,0.00,OVC,,0.00,244.0,WeatherDisplay:10.37,2013-01-27 18:44:00,
2013-01-27 13:49:00,27.8,16.8,30.36,SSE,151,2.8,5.8,63,0.00,OVC,,0.00,269.0,WeatherDisplay:10.37,2013-01-27 18:49:00,
2013-01-27 13:54:00,27.9,16.6,30.36,South,185,3.0,4.0,62,0.00,OVC,,0.00,269.0,WeatherDisplay:10.37,2013-01-27 18:54:00,
2013-01-27 13:59:00,28.1,17.1,30.36,SE,141,1.8,3.5,63,0.00,OVC,,0.00,288.0,WeatherDisplay:10.37,2013-01-27 18:59:00,
2013-01-27 14:04:00,28.4,17.8,30.35,South,184,1.2,3.0,64,0.00,OVC,,0.00,301.0,WeatherDisplay:10.37,2013-01-27 19:04:00,
2013-01-27 14:09:00,28.7,17.7,30.35,ESE,115,2.2,3.5,63,0.00,OVC,,0.00,246.0,WeatherDisplay:10.37,2013-01-27 19:09:00,
2013-01-27 14:14:00,28.5,16.7,30.35,SSE,167,3.1,4.0,61,0.00,OVC,,0.00,181.0,WeatherDisplay:10.37,2013-01-27 19:14:00,
2013-01-27 14:19:00,28.3,16.9,30.34,SSE,154,1.3,2.3,62,0.00,OVC,,0.00,200.0,WeatherDisplay:10.37,2013-01-27 19:19:00,
2013-01-27 14:24:00,28.3,17.7,30.34,ESE,120,3.1,4.0,64,0.00,OVC,,0.00,234.0,WeatherDisplay:10.37,2013-01-27 19:24:00,
2013-01-27 14:29:00,28.2,17.6,30.34,SSE,148,2.3,3.5,64,0.00,OVC,,0.00,265.0,WeatherDisplay:10.37,2013-01-27 19:29:00,
2013-01-27 14:34:00,28.3,17.7,30.33,South,177,1.7,3.5,64,0.00,OVC,,0.00,232.0,WeatherDisplay:10.37,2013-01-27 19:34:00,
2013-01-27 14:39:00,28.3,18.0,30.33,ESE,112,2.9,3.5,65,0.00,OVC,,0.00,239.0,WeatherDisplay:10.37,2013-01-27 19:39:00,
2013-01-27 14:44:00,28.3,17.7,30.33,ESE,117,2.0,3.5,64,0.00,OVC,,0.00,236.0,WeatherDisplay:10.37,2013-01-27 19:44:00,
2013-01-27 14:49:00,28.4,17.8,30.33,SE,130,3.3,5.8,64,0.00,OVC,,0.00,229.0,WeatherDisplay:10.37,2013-01-27 19:49:00,
2013-01-27 14:54:00,28.3,18.0,30.33,SE,129,3.2,4.6,65,0.00,OVC,,0.00,179.0,WeatherDisplay:10.37,2013-01-27 19:54:00,
2013-01-27 14:59:00,28.2,17.6,30.33,ESE,104,3.3,4.0,64,0.00,OVC,,0.00,165.0,WeatherDisplay:10.37,2013-01-27 19:59:00,
2013-01-27 15:04:00,28.1,18.5,30.32,SE,131,0.9,2.3,67,0.00,OVC,,0.00,181.0,WeatherDisplay:10.37,2013-01-27 20:04:00,
2013-01-27 15:09:00,28.3,18.4,30.32,ESE,110,4.0,5.8,66,0.00,OVC,,0.00,185.0,WeatherDisplay:10.37,2013-01-27 20:09:00,
2013-01-27 15:14:00,28.1,18.2,30.32,East,92,2.8,5.0,66,0.00,SCT,,0.00,160.0,WeatherDisplay:10.37,2013-01-27 20:14:00,
2013-01-27 15:19:00,28.1,18.2,30.32,SSE,165,2.6,3.5,66,0.00,SCT,,0.00,169.0,WeatherDisplay:10.37,2013-01-27 20:19:00,
2013-01-27 15:24:00,28.0,18.5,30.31,SE,143,2.1,3.5,67,0.00,SCT,,0.00,165.0,WeatherDisplay:10.37,2013-01-27 20:24:00,
2013-01-27 15:29:00,27.9,18.4,30.31,SE,133,2.8,4.6,67,0.00,SCT,,0.00,146.0,WeatherDisplay:10.37,2013-01-27 20:29:00,
2013-01-27 15:34:00,27.9,18.4,30.31,ESE,114,2.4,3.5,67,0.00,SCT,,0.00,134.0,WeatherDisplay:10.37,2013-01-27 20:34:00,
2013-01-27 15:39:00,27.8,18.3,30.30,SE,143,2.6,3.5,67,0.00,SCT,,0.00,123.0,WeatherDisplay:10.37,2013-01-27 20:39:00,
2013-01-27 15:44:00,27.8,18.9,30.31,ESE,107,1.6,3.5,69,0.00,SCT,,0.00,118.0,WeatherDisplay:10.37,2013-01-27 20:44:00,
2013-01-27 15:49:00,27.8,18.9,30.31,ESE,120,2.9,4.6,69,0.00,SCT,,0.00,118.0,WeatherDisplay:10.37,2013-01-27 20:49:00,
2013-01-27 15:54:00,27.6,19.1,30.31,ESE,103,3.6,4.6,70,0.00,SCT,,0.00,116.0,WeatherDisplay:10.37,2013-01-27 20:54:00,
2013-01-27 15:59:00,27.4,19.6,30.31,ESE,119,1.6,2.3,72,0.00,SCT,,0.00,128.0,WeatherDisplay:10.37,2013-01-27 20:59:00,
2013-01-27 16:04:00,27.4,19.6,30.31,East,93,3.2,6.0,72,0.00,SCT,,0.00,109.0,WeatherDisplay:10.37,2013-01-27 21:04:00,
2013-01-27 16:09:00,27.1,19.6,30.30,SE,125,3.4,4.6,73,0.00,SCT,,0.00,84.0,WeatherDisplay:10.37,2013-01-27 21:09:00,
2013-01-27 16:14:00,27.0,19.8,30.30,East,101,2.9,5.0,74,0.00,SCT,,0.00,76.0,WeatherDisplay:10.37,2013-01-27 21:14:00,
2013-01-27 16:19:00,26.9,19.7,30.30,ESE,104,1.6,3.0,74,0.00,SCT,,0.00,76.0,WeatherDisplay:10.37,2013-01-27 21:19:00,
2013-01-27 16:24:00,26.9,20.0,30.30,East,98,2.3,4.6,75,0.00,SCT,,0.00,79.0,WeatherDisplay:10.37,2013-01-27 21:24:00,
2013-01-27 16:29:00,26.9,20.0,30.30,ESE,105,2.6,3.5,75,0.00,SCT,,0.00,56.0,WeatherDisplay:10.37,2013-01-27 21:29:00,
2013-01-27 16:34:00,26.9,20.0,30.29,ESE,114,2.5,4.6,75,0.00,SCT,,0.00,47.0,WeatherDisplay:10.37,2013-01-27 21:34:00,
2013-01-27 16:39:00,26.9,20.0,30.29,SE,136,1.9,3.5,75,0.00,SCT,,0.00,51.0,WeatherDisplay:10.37,2013-01-27 21:39:00,
2013-01-27 16:44:00,26.7,20.1,30.29,ESE,111,2.1,3.5,76,0.00,SCT,,0.00,51.0,WeatherDisplay:10.37,2013-01-27 21:44:00,
2013-01-27 16:49:00,26.5,20.0,30.29,ESE,109,3.7,5.8,76,0.00,SCT,,0.00,35.0,WeatherDisplay:10.37,2013-01-27 21:49:00,
2013-01-27 16:54:00,26.4,19.9,30.29,East,87,4.9,6.9,76,0.00,SCT,,0.00,23.0,WeatherDisplay:10.37,2013-01-27 21:54:00,
2013-01-27 16:59:00,26.3,19.8,30.30,SE,142,2.2,3.5,76,0.00,SCT,,0.00,14.0,WeatherDisplay:10.37,2013-01-27 21:59:00,
2013-01-27 17:05:00,26.3,19.8,30.30,SE,144,1.8,3.5,76,0.00,OVC,,0.00,14.0,WeatherDisplay:10.37,2013-01-27 22:05:00,
2013-01-27 17:10:00,26.4,19.9,30.30,SSE,158,1.7,3.5,76,0.00,OVC,,0.00,11.0,WeatherDisplay:10.37,2013-01-27 22:10:00,
2013-01-27 17:14:00,26.4,20.2,30.30,SE,128,1.1,3.0,77,0.00,OVC,,0.00,7.0,WeatherDisplay:10.37,2013-01-27 22:14:00,
2013-01-27 17:20:00,26.3,20.1,30.30,ESE,120,1.4,3.0,77,0.00,OVC,,0.00,7.0,WeatherDisplay:10.37,2013-01-27 22:20:00,
2013-01-27 17:25:00,26.3,20.1,30.30,SE,138,3.7,4.6,77,0.00,OVC,,0.00,5.0,WeatherDisplay:10.37,2013-01-27 22:25:00,
2013-01-27 17:30:00,26.3,20.4,30.30,SE,131,1.8,3.5,78,0.00,OVC,,0.00,0.0,WeatherDisplay:10.37,2013-01-27 22:30:00,
2013-01-27 17:35:00,26.2,20.6,30.31,ESE,121,1.2,2.3,79,0.00,OVC,,0.00,0.0,WeatherDisplay:10.37,2013-01-27 22:35:00,
2013-01-27 17:40:00,26.2,20.6,30.31,South,188,2.7,4.6,79,0.00,OVC,,0.00,0.0,WeatherDisplay:10.37,2013-01-27 22:40:00,
2013-01-27 17:45:00,26.1,20.8,30.31,ESE,103,4.2,5.8,80,0.00,OVC,,0.00,0.0,WeatherDisplay:10.37,2013-01-27 22:45:00,
2013-01-27 17:50:00,26.1,20.5,30.31,SE,136,1.6,2.3,79,0.00,OVC,,0.00,0.0,WeatherDisplay:10.37,2013-01-27 22:50:00,
2013-01-27 17:55:00,26.0,20.7,30.31,SE,137,1.3,2.3,80,0.00,OVC,,0.00,0.0,WeatherDisplay:10.37,2013-01-27 22:55:00,
2013-01-27 18:00:00,26.0,20.7,30.31,SE,138,1.3,2.3,80,0.00,OVC,,0.00,0.0,WeatherDisplay:10.37,2013-01-27 23:00:00,
2013-01-27 18:05:00,26.0,21.0,30.31,East,98,2.8,3.5,81,0.00,OVC,,0.00,0.0,WeatherDisplay:10.37,2013-01-27 23:05:00,
2013-01-27 18:10:00,26.0,21.0,30.31,SE,132,2.5,2.5,81,0.00,OVC,,0.00,0.0,WeatherDisplay:10.37,2013-01-27 23:10:00,
2013-01-27 18:15:00,25.9,21.4,30.32,ESE,123,1.1,1.1,83,0.00,OVC,,0.00,0.0,WeatherDisplay:10.37,2013-01-27 23:15:00,
2013-01-27 18:20:00,25.7,21.8,30.32,ESE,115,3.0,3.5,85,0.00,OVC,,0.00,0.0,WeatherDisplay:10.37,2013-01-27 23:20:00,
2013-01-27 18:25:00,25.5,22.2,30.31,ESE,113,1.4,2.3,87,0.00,OVC,,0.00,0.0,WeatherDisplay:10.37,2013-01-27 23:25:00,
2013-01-27 18:30:00,25.3,22.2,30.31,ESE,111,1.0,2.3,88,0.00,OVC,,0.00,0.0,WeatherDisplay:10.37,2013-01-27 23:30:00,
2013-01-27 18:35:00,25.1,22.3,30.31,ESE,111,1.2,3.5,89,0.00,-SN,,0.00,0.0,WeatherDisplay:10.37,2013-01-27 23:35:00,
2013-01-27 18:40:00,24.9,22.4,30.31,East,96,1.2,3.0,90,0.00,-SN,,0.00,0.0,WeatherDisplay:10.37,2013-01-27 23:40:00,
2013-01-27 18:45:00,24.9,22.4,30.31,East,95,0.9,2.3,90,0.00,-SN,,0.00,0.0,WeatherDisplay:10.37,2013-01-27 23:45:00,
2013-01-27 18:50:00,24.8,22.5,30.30,ESE,111,1.4,2.3,91,0.00,-SN,,0.00,0.0,WeatherDisplay:10.37,2013-01-27 23:50:00,
2013-01-27 18:55:00,24.7,22.4,30.30,ESE,122,2.2,3.5,91,0.00,-SN,,0.00,0.0,WeatherDisplay:10.37,2013-01-27 23:55:00,
2013-01-27 19:00:00,24.7,22.4,30.30,SE,126,1.2,2.3,91,0.00,-SN,,0.00,0.0,WeatherDisplay:10.37,2013-01-28 00:00:00,
2013-01-27 19:05:00,24.7,22.7,30.30,SE,128,1.9,3.5,92,0.00,-SN,,0.00,0.0,WeatherDisplay:10.37,2013-01-28 00:05:00,
2013-01-27 19:10:00,24.7,22.7,30.29,ESE,107,1.4,3.5,92,0.00,-SN,,0.00,0.0,WeatherDisplay:10.37,2013-01-28 00:10:00,
2013-01-27 19:15:00,24.7,22.7,30.29,ESE,103,2.1,3.5,92,0.00,-SN,,0.00,0.0,WeatherDisplay:10.37,2013-01-28 00:15:00,
2013-01-27 19:20:00,24.7,22.7,30.28,East,101,1.4,4.6,92,0.00,-SN,,0.00,0.0,WeatherDisplay:10.37,2013-01-28 00:20:00,
2013-01-27 19:25:00,24.8,22.8,30.28,SE,132,1.9,3.5,92,0.00,-SN,,0.00,0.0,WeatherDisplay:10.37,2013-01-28 00:25:00,
2013-01-27 19:30:00,24.8,22.8,30.27,East,96,2.6,6.9,92,0.00,-SN,,0.00,0.0,WeatherDisplay:10.37,2013-01-28 00:30:00,
2013-01-27 19:35:00,24.9,22.9,30.28,ESE,117,2.3,3.5,92,0.00,-SN,,0.00,0.0,WeatherDisplay:10.37,2013-01-28 00:35:00,
2013-01-27 19:40:00,24.9,22.9,30.28,SE,136,1.7,3.5,92,0.00,-SN,,0.00,0.0,WeatherDisplay:10.37,2013-01-28 00:40:00,
2013-01-27 19:45:00,25.0,23.0,30.27,ESE,105,1.5,3.5,92,0.00,-SN,,0.00,0.0,WeatherDisplay:10.37,2013-01-28 00:45:00,
2013-01-27 19:50:00,25.0,23.0,30.27,SE,124,1.9,3.5,92,0.00,-SN,,0.00,0.0,WeatherDisplay:10.37,2013-01-28 00:50:00,
2013-01-27 19:55:00,25.1,23.1,30.27,SE,125,1.5,3.5,92,0.00,-SN,,0.00,0.0,WeatherDisplay:10.37,2013-01-28 00:55:00,
2013-01-27 20:00:00,25.2,23.2,30.27,East,92,4.0,5.8,92,0.00,-SN,,0.00,0.0,WeatherDisplay:10.37,2013-01-28 01:00:00,
2013-01-27 20:05:00,25.2,23.2,30.26,East,94,2.0,3.0,92,0.00,-SN,,0.00,0.0,WeatherDisplay:10.37,2013-01-28 01:05:00,
2013-01-27 20:10:00,25.2,23.2,30.26,East,101,2.7,3.5,92,0.00,-SN,,0.00,0.0,WeatherDisplay:10.37,2013-01-28 01:10:00,
2013-01-27 20:15:00,25.2,23.2,30.26,East,98,4.2,9.2,92,0.00,-SN,,0.00,0.0,WeatherDisplay:10.37,2013-01-28 01:15:00,
2013-01-27 20:20:00,25.2,23.5,30.25,East,97,4.6,6.9,93,0.00,-SN,,0.00,0.0,WeatherDisplay:10.37,2013-01-28 01:20:00,
2013-01-27 20:25:00,25.2,23.5,30.25,East,88,5.7,8.1,93,0.00,-SN,,0.00,0.0,WeatherDisplay:10.37,2013-01-28 01:25:00,
2013-01-27 20:30:00,25.2,23.5,30.23,ENE,75,9.1,9.1,93,0.00,-SN,,0.00,0.0,WeatherDisplay:10.37,2013-01-28 01:30:00,
2013-01-27 20:35:00,25.3,23.6,30.22,ENE,78,5.7,12.7,93,0.00,-SN,,0.00,0.0,WeatherDisplay:10.37,2013-01-28 01:35:00,
2013-01-27 20:40:00,25.4,23.7,30.23,East,88,5.0,8.0,93,0.00,-SN,,0.00,0.0,WeatherDisplay:10.37,2013-01-28 01:40:00,
2013-01-27 20:45:00,25.5,23.8,30.26,SE,130,5.0,14.0,93,0.00,-SN,,0.00,0.0,WeatherDisplay:10.37,2013-01-28 01:45:00,
2013-01-27 20:50:00,25.6,23.9,30.24,SE,144,2.1,3.5,93,0.00,-SN,,0.00,0.0,WeatherDisplay:10.37,2013-01-28 01:50:00,
2013-01-27 20:55:00,25.6,23.9,30.24,South,180,3.4,3.5,93,0.00,-SN,,0.00,0.0,WeatherDisplay:10.37,2013-01-28 01:55:00,
2013-01-27 21:00:00,25.7,24.0,30.21,ESE,114,4.2,4.6,93,0.00,-SN,,0.00,0.0,WeatherDisplay:10.37,2013-01-28 02:00:00,
2013-01-27 21:05:00,25.7,24.0,30.20,East,100,6.2,6.2,93,0.00,-SN,,0.00,0.0,WeatherDisplay:10.37,2013-01-28 02:05:00,
2013-01-27 21:10:00,25.8,24.1,30.19,SE,138,4.0,8.1,93,0.00,-SN,,0.00,0.0,WeatherDisplay:10.37,2013-01-28 02:10:00,
2013-01-27 21:15:00,25.9,24.2,30.19,SE,126,2.9,4.0,93,0.00,-SN,,0.00,0.0,WeatherDisplay:10.37,2013-01-28 02:15:00,
2013-01-27 21:20:00,26.0,24.3,30.19,SE,128,4.5,9.2,93,0.00,-SN,,0.00,0.0,WeatherDisplay:10.37,2013-01-28 02:20:00,
2013-01-27 21:25:00,26.1,24.4,30.20,ESE,123,2.1,5.8,93,0.00,-SN,,0.00,0.0,WeatherDisplay:10.37,2013-01-28 02:25:00,
2013-01-27 21:30:00,26.2,24.5,30.20,SE,138,4.2,7.0,93,0.00,-SN,,0.00,0.0,WeatherDisplay:10.37,2013-01-28 02:30:00,
2013-01-27 21:35:00,26.3,24.6,30.19,SE,132,1.7,3.5,93,0.00,-SN,,0.00,0.0,WeatherDisplay:10.37,2013-01-28 02:35:00,
2013-01-27 21:40:00,26.4,24.7,30.18,SE,135,3.1,10.4,93,0.00,-SN,,0.00,0.0,WeatherDisplay:10.37,2013-01-28 02:40:00,
2013-01-27 21:45:00,26.5,25.0,30.19,ESE,113,4.4,6.9,94,0.00,-SN,,0.00,0.0,WeatherDisplay:10.37,2013-01-28 02:45:00,
2013-01-27 21:50:00,26.6,24.8,30.19,SE,143,2.6,3.5,93,0.00,-SN,,0.00,0.0,WeatherDisplay:10.37,2013-01-28 02:50:00,
2013-01-27 21:55:00,26.7,25.2,30.19,East,95,1.9,3.5,94,0.00,-SN,,0.00,0.0,WeatherDisplay:10.37,2013-01-28 02:55:00,
2013-01-27 22:00:00,26.9,25.4,30.18,SE,131,2.8,4.6,94,0.00,-SN,,0.00,0.0,WeatherDisplay:10.37,2013-01-28 03:00:00,
2013-01-27 22:05:00,27.0,25.2,30.18,SE,139,4.0,4.6,93,0.00,OVC,,0.00,0.0,WeatherDisplay:10.37,2013-01-28 03:05:00,
2013-01-27 22:10:00,27.1,25.3,30.17,SSE,163,4.1,5.8,93,0.00,OVC,,0.00,0.0,WeatherDisplay:10.37,2013-01-28 03:10:00,
2013-01-27 22:15:00,27.3,25.5,30.18,ESE,115,2.1,6.9,93,0.00,OVC,,0.00,0.0,WeatherDisplay:10.37,2013-01-28 03:15:00,
2013-01-27 22:20:00,27.4,25.6,30.18,SE,131,3.3,4.6,93,0.00,OVC,,0.00,0.0,WeatherDisplay:10.37,2013-01-28 03:20:00,
2013-01-27 22:25:00,27.5,25.7,30.18,SE,140,2.2,4.6,93,0.00,OVC,,0.00,0.0,WeatherDisplay:10.37,2013-01-28 03:25:00,
2013-01-27 22:30:00,27.6,25.8,30.17,SSE,163,1.8,4.0,93,0.00,OVC,,0.00,0.0,WeatherDisplay:10.37,2013-01-28 03:30:00,
2013-01-27 22:35:00,27.7,25.7,30.17,SE,144,3.2,5.8,92,0.00,OVC,,0.00,0.0,WeatherDisplay:10.37,2013-01-28 03:35:00,
2013-01-27 22:40:00,27.8,25.8,30.16,ESE,111,3.8,4.6,92,0.00,OVC,,0.00,0.0,WeatherDisplay:10.37,2013-01-28 03:40:00,
2013-01-27 22:45:00,27.8,25.5,30.15,ESE,123,4.2,4.6,91,0.00,OVC,,0.00,0.0,WeatherDisplay:10.37,2013-01-28 03:45:00,
2013-01-27 22:50:00,27.8,25.8,30.15,SE,129,1.9,3.5,92,0.00,OVC,,0.00,0.0,WeatherDisplay:10.37,2013-01-28 03:50:00,
2013-01-27 22:55:00,27.9,25.6,30.14,ESE,119,2.9,4.6,91,0.00,OVC,,0.00,0.0,WeatherDisplay:10.37,2013-01-28 03:55:00,
2013-01-27 23:00:00,27.9,25.6,30.15,ESE,107,3.0,4.0,91,0.00,OVC,,0.00,0.0,WeatherDisplay:10.37,2013-01-28 04:00:00,
2013-01-27 23:05:00,28.0,25.7,30.15,SSE,152,3.1,4.6,91,0.00,OVC,,0.00,0.0,WeatherDisplay:10.37,2013-01-28 04:05:00,
2013-01-27 23:10:00,28.1,25.5,30.14,SSE,148,4.7,6.9,90,0.00,OVC,,0.00,0.0,WeatherDisplay:10.37,2013-01-28 04:10:00,
2013-01-27 23:15:00,28.2,25.6,30.13,SE,139,3.9,6.9,90,0.00,OVC,,0.00,0.0,WeatherDisplay:10.37,2013-01-28 04:15:00,
2013-01-27 23:20:00,28.2,25.6,30.12,South,180,4.1,11.0,90,0.00,OVC,,0.00,0.0,WeatherDisplay:10.37,2013-01-28 04:20:00,
2013-01-27 23:25:00,28.3,25.7,30.10,SSE,147,4.7,6.9,90,0.00,OVC,,0.00,0.0,WeatherDisplay:10.37,2013-01-28 04:25:00,
2013-01-27 23:30:00,28.3,26.0,30.10,SSE,155,4.6,8.1,91,0.00,OVC,,0.00,0.0,WeatherDisplay:10.37,2013-01-28 04:30:00,
2013-01-27 23:35:00,28.5,26.5,30.10,SE,134,4.1,6.9,92,0.00,OVC,,0.00,0.0,WeatherDisplay:10.37,2013-01-28 04:35:00,
2013-01-27 23:40:00,28.7,26.4,30.09,ESE,122,4.1,8.1,91,0.00,OVC,,0.00,0.0,WeatherDisplay:10.37,2013-01-28 04:40:00,
2013-01-27 23:45:00,28.8,26.5,30.07,ESE,119,5.0,7.0,91,0.00,OVC,,0.00,0.0,WeatherDisplay:10.37,2013-01-28 04:45:00,
2013-01-27 23:50:00,28.8,26.5,30.08,SSE,165,2.9,6.9,91,0.00,OVC,,0.00,0.0,WeatherDisplay:10.37,2013-01-28 04:50:00,
2013-01-27 23:55:00,28.9,26.9,30.08,SE,136,4.9,6.9,92,0.00,OVC,,0.00,0.0,WeatherDisplay:10.37,2013-01-28 04:55:00,